When you browse on this site, cookies collect data to enhance your experience and personalize the content and advertising you see.
Visit our Privacy Policy to learn more. By continuing to use the site, you agree to this use of cookies and data.
  • In Hungary
  • List of Countries
  • For 7 days
  • Water Temperature
  • Weather Map
  • News
  • Weather Widgets
  • user-avatar
    Login

    Hourly Weather Banda

    Today, 25 August, Sunday

    Time Temperature Precipitation Wind Pressure Humidity
    00:00 +30°C° 0.1 mm 1 mps 742 mmHg 78%
    01:00 +30°C° 0.1 mm 1 mps 741 mmHg 79%
    02:00 +29°C° 0.1 mm 1 mps 741 mmHg 81%
    03:00 +29°C° 0.7 mm 1 mps 741 mmHg 82%
    04:00 +29°C° 0.7 mm 1 mps 741 mmHg 84%
    05:00 +29°C° 0 mm 2 mps 741 mmHg 88%
    06:00 +29°C° 1.2 mm 2 mps 741 mmHg 88%
    07:00 +29°C° 1.2 mm 3 mps 742 mmHg 88%
    08:00 +28°C° 1.2 mm 3 mps 742 mmHg 87%
    09:00 +30°C° 0.4 mm 2 mps 742 mmHg 80%
    10:00 +31°C° 0.4 mm 2 mps 742 mmHg 73%
    11:00 +33°C° 0.4 mm 1 mps 741 mmHg 67%
    12:00 +35°C° 0.2 mm 2 mps 741 mmHg 63%
    13:00 +36°C° 0.2 mm 2 mps 740 mmHg 60%
    14:00 +36°C° 0.2 mm 3 mps 740 mmHg 56%
    15:00 +36°C° 1 mm 3 mps 739 mmHg 61%
    16:00 +35°C° 1 mm 3 mps 739 mmHg 66%
    17:00 +34°C° 1 mm 3 mps 739 mmHg 70%
    18:00 +33°C° 0.8 mm 3 mps 739 mmHg 73%
    19:00 +33°C° 0.8 mm 3 mps 740 mmHg 75%
    20:00 +31°C° 0.8 mm 2 mps 741 mmHg 78%
    21:00 +31°C° 0.5 mm 2 mps 741 mmHg 79%
    22:00 +31°C° 0.5 mm 3 mps 741 mmHg 80%
    23:00 +30°C° 0.5 mm 3 mps 741 mmHg 82%

    Tomorrow, 26 August, Monday

    Time Temperature Precipitation Wind Pressure Humidity
    00:00 +30°C° 0.3 mm 3 mps 740 mmHg 83%
    01:00 +30°C° 0.3 mm 3 mps 740 mmHg 83%
    02:00 +30°C° 0.3 mm 3 mps 740 mmHg 84%
    03:00 +29°C° 0.6 mm 3 mps 740 mmHg 85%
    04:00 +29°C° 0.6 mm 3 mps 740 mmHg 86%
    05:00 +29°C° 0.6 mm 3 mps 740 mmHg 88%
    06:00 +30°C° 0.3 mm 4 mps 740 mmHg 84%
    07:00 +32°C° 0.3 mm 4 mps 741 mmHg 80%
    08:00 +32°C° 0.3 mm 5 mps 741 mmHg 76%
    09:00 +33°C° 0.1 mm 5 mps 741 mmHg 71%
    10:00 +34°C° 0.1 mm 6 mps 741 mmHg 67%
    11:00 +35°C° 0.1 mm 6 mps 741 mmHg 62%
    12:00 +36°C° 0.2 mm 6 mps 740 mmHg 61%
    13:00 +36°C° 0.2 mm 6 mps 739 mmHg 59%
    14:00 +37°C° 0.2 mm 5 mps 739 mmHg 58%
    15:00 +37°C° 0.1 mm 5 mps 738 mmHg 59%
    16:00 +36°C° 0.1 mm 4 mps 738 mmHg 59%
    17:00 +36°C° 0.1 mm 4 mps 738 mmHg 60%
    18:00 +35°C° 1.1 mm 5 mps 738 mmHg 66%
    19:00 +33°C° 1.1 mm 6 mps 739 mmHg 72%
    20:00 +32°C° 1.1 mm 6 mps 739 mmHg 79%
    21:00 +32°C° 1.2 mm 5 mps 739 mmHg 80%
    22:00 +30°C° 1.2 mm 4 mps 739 mmHg 81%
    23:00 +30°C° 1.2 mm 2 mps 740 mmHg 81%

    Day after tomorrow, 27 August, Tuesday

    Time Temperature Precipitation Wind Pressure Humidity
    00:00 +30°C° 0.3 mm 2 mps 739 mmHg 82%
    01:00 +30°C° 0.3 mm 3 mps 739 mmHg 83%
    02:00 +30°C° 0.3 mm 3 mps 739 mmHg 84%
    03:00 +30°C° 0 mm 3 mps 739 mmHg 85%
    04:00 +29°C° 0 mm 3 mps 739 mmHg 86%
    05:00 +29°C° 0 mm 4 mps 739 mmHg 88%
    06:00 +30°C° 0.3 mm 4 mps 739 mmHg 84%
    07:00 +32°C° 0.3 mm 5 mps 739 mmHg 81%
    08:00 +32°C° 0.3 mm 5 mps 740 mmHg 78%
    09:00 +33°C° 2.1 mm 5 mps 740 mmHg 74%
    10:00 +34°C° 2.1 mm 5 mps 739 mmHg 70%
    11:00 +35°C° 2.1 mm 5 mps 739 mmHg 66%
    12:00 +36°C° 1 mm 5 mps 739 mmHg 64%
    13:00 +36°C° 1 mm 5 mps 738 mmHg 62%
    14:00 +37°C° 1 mm 5 mps 738 mmHg 59%
    15:00 +36°C° 2.4 mm 4 mps 737 mmHg 64%
    16:00 +35°C° 2.4 mm 4 mps 737 mmHg 68%
    17:00 +34°C° 2.4 mm 3 mps 737 mmHg 72%
    18:00 +34°C° 0.4 mm 3 mps 738 mmHg 75%
    19:00 +33°C° 0.4 mm 3 mps 738 mmHg 78%
    20:00 +31°C° 0.4 mm 3 mps 739 mmHg 80%
    21:00 +31°C° 0 mm 3 mps 739 mmHg 82%
    22:00 +30°C° 0 mm 3 mps 740 mmHg 83%
    23:00 +30°C° 0 mm 3 mps 740 mmHg 84%

    28 August, Wednesday

    Time Temperature Precipitation Wind Pressure Humidity
    00:00 +29°C° 0 mm 3 mps 740 mmHg 85%
    01:00 +29°C° 0 mm 3 mps 739 mmHg 85%
    02:00 +28°C° 0 mm 3 mps 739 mmHg 86%
    03:00 +28°C° 0 mm 3 mps 739 mmHg 86%
    04:00 +28°C° 0 mm 3 mps 740 mmHg 87%
    05:00 +28°C° 0 mm 2 mps 740 mmHg 87%
    06:00 +29°C° 0 mm 3 mps 741 mmHg 85%
    07:00 +29°C° 0 mm 4 mps 741 mmHg 83%
    08:00 +30°C° 0 mm 4 mps 742 mmHg 80%
    09:00 +32°C° 0 mm 4 mps 742 mmHg 76%
    10:00 +33°C° 0 mm 4 mps 742 mmHg 73%
    11:00 +34°C° 0 mm 4 mps 742 mmHg 69%
    12:00 +34°C° 0 mm 4 mps 741 mmHg 67%
    13:00 +35°C° 0 mm 4 mps 741 mmHg 66%
    14:00 +35°C° 0 mm 3 mps 740 mmHg 64%
    15:00 +35°C° 0 mm 3 mps 740 mmHg 65%
    16:00 +35°C° 0 mm 2 mps 740 mmHg 65%
    17:00 +35°C° 0 mm 2 mps 739 mmHg 66%
    18:00 +34°C° 0 mm 2 mps 740 mmHg 68%
    19:00 +34°C° 0 mm 2 mps 741 mmHg 70%
    20:00 +32°C° 0 mm 2 mps 741 mmHg 72%
    21:00 +32°C° 0 mm 2 mps 741 mmHg 74%
    22:00 +31°C° 0 mm 2 mps 741 mmHg 75%
    23:00 +31°C° 0 mm 2 mps 741 mmHg 77%

    29 August, Thursday

    Time Temperature Precipitation Wind Pressure Humidity
    00:00 +31°C° 0 mm 2 mps 741 mmHg 78%
    01:00 +30°C° 0 mm 2 mps 741 mmHg 79%
    02:00 +30°C° 0 mm 2 mps 741 mmHg 80%
    03:00 +30°C° 0 mm 2 mps 741 mmHg 80%
    04:00 +30°C° 0 mm 2 mps 741 mmHg 81%
    05:00 +30°C° 0 mm 2 mps 741 mmHg 82%
    06:00 +30°C° 0 mm 2 mps 742 mmHg 79%
    07:00 +31°C° 0 mm 3 mps 742 mmHg 76%
    08:00 +33°C° 0 mm 3 mps 742 mmHg 73%
    09:00 +34°C° 0 mm 3 mps 742 mmHg 69%
    10:00 +35°C° 0 mm 3 mps 742 mmHg 64%
    11:00 +36°C° 0 mm 3 mps 742 mmHg 59%
    12:00 +36°C° 0 mm 3 mps 741 mmHg 57%
    13:00 +37°C° 0 mm 2 mps 740 mmHg 54%
    14:00 +37°C° 0 mm 2 mps 740 mmHg 52%
    15:00 +37°C° 0 mm 2 mps 739 mmHg 53%
    16:00 +37°C° 0 mm 2 mps 739 mmHg 54%
    17:00 +37°C° 0 mm 2 mps 739 mmHg 55%
    18:00 +36°C° 0 mm 2 mps 739 mmHg 58%
    19:00 +35°C° 0 mm 2 mps 740 mmHg 61%
    20:00 +34°C° 0 mm 1 mps 740 mmHg 64%
    21:00 +34°C° 0 mm 2 mps 740 mmHg 66%
    22:00 +34°C° 0 mm 2 mps 740 mmHg 67%
    23:00 +32°C° 0 mm 2 mps 740 mmHg 69%

    30 August, Friday

    Time Temperature Precipitation Wind Pressure Humidity
    00:00 +32°C° 0.4 mm 2 mps 740 mmHg 72%
    01:00 +31°C° 0.4 mm 3 mps 740 mmHg 76%
    02:00 +31°C° 0.4 mm 3 mps 739 mmHg 79%
    03:00 +30°C° 0 mm 3 mps 739 mmHg 80%
    04:00 +30°C° 0 mm 3 mps 739 mmHg 82%
    05:00 +30°C° 0 mm 2 mps 739 mmHg 83%
    06:00 +30°C° 0.5 mm 2 mps 740 mmHg 80%
    07:00 +31°C° 0.5 mm 2 mps 740 mmHg 78%
    08:00 +32°C° 0.5 mm 1 mps 740 mmHg 75%
    09:00 +33°C° 0.1 mm 1 mps 740 mmHg 69%
    10:00 +34°C° 0.1 mm 1 mps 740 mmHg 63%
    11:00 +36°C° 0.1 mm 1 mps 740 mmHg 58%
    12:00 +36°C° 0 mm 1 mps 739 mmHg 54%
    13:00 +37°C° 0 mm 1 mps 738 mmHg 51%
    14:00 +39°C° 0 mm 2 mps 738 mmHg 48%
    15:00 +38°C° 0 mm 2 mps 737 mmHg 50%
    16:00 +38°C° 0 mm 2 mps 737 mmHg 53%
    17:00 +38°C° 0 mm 2 mps 737 mmHg 55%
    18:00 +37°C° 0.1 mm 2 mps 737 mmHg 58%
    19:00 +35°C° 0.1 mm 1 mps 738 mmHg 60%
    20:00 +34°C° 0.1 mm 1 mps 738 mmHg 63%
    21:00 +34°C° 0.3 mm 1 mps 738 mmHg 65%
    22:00 +34°C° 0.3 mm 2 mps 739 mmHg 68%
    23:00 +34°C° 0.3 mm 2 mps 739 mmHg 70%
    Show more